ECMWFNIL_sfc_dewp_099.txt.gz
Dewpoint
-10 -10 -10 -11 -12 -5 -10 -13 -16 -17 -16 -15 -15 -15 -15 -15 -11 -12 -11 -11 -10 -11 -11 -12 -11 -11 -10 -11 -12 -11 -11 -11 -10 -12 -12 -11 -11 -11 -10 -10 -10 -9
-13 -6 -0 -6 -8 -10 -14 -16 -17 -16 -16 -15 -16 -16 -15 -13 -13 -12 -11 -12 -12 -12 -12 -12 -12 -11 -12 -11 -11 -11 -11 -11 -11 -10 -11 -12 -11 -11 -11 -11 -11 -11
-14 -13 -14 -15 -15 -16 -17 -17 -15 -16 -15 -15 -15 -14 -14 -12 -12 -11 -12 -11 -10 -12 -13 -12 -12 -12 -10 -11 -12 -12 -11 -11 -11 -11 -10 -11 -11 -11 -11 -11 -11 -10
-14 -13 -14 -15 -16 -16 -16 -15 -16 -15 -15 -15 -15 -14 -12 -12 -9 -12 -12 -8 -12 -13 -13 -13 -12 -13 -13 -13 -11 -11 -11 -11 -12 -12 -12 -10 -9 -9 -10 -10 -8 -9
-13 -13 -13 -14 -15 -13 -14 -16 -16 -16 -15 -15 -15 -13 -9 -12 -12 -12 -13 -12 -13 -13 -12 -12 -12 -12 -12 -13 -13 -13 -13 -12 -13 -13 -12 -11 -11 -10 -10 -9 -9 -8
-13 -12 -11 -12 -14 -14 -15 -16 -15 -15 -15 -14 -14 -10 -12 -12 -13 -13 -13 -14 -13 -13 -12 -11 -11 -12 -12 -13 -13 -13 -13 -12 -12 -12 -12 -12 -11 -10 -10 -9 -8 -6
-14 -14 -14 -14 -14 -15 -14 -14 -14 -8 -12 -13 -11 -13 -13 -13 -14 -14 -14 -12 -13 -11 -12 -12 -13 -12 -12 -12 -12 -11 -11 -12 -12 -11 -11 -11 -10 -10 -10 -9 -7 -7
-15 -15 -15 -15 -15 -14 -13 -14 -14 -14 -15 -13 -14 -14 -13 -13 -13 -13 -12 -12 -13 -12 -12 -12 -12 -12 -12 -11 -11 -11 -11 -11 -11 -10 -10 -10 -10 -10 -10 -8 -7 -7
-15 -15 -15 -15 -14 -14 -14 -14 -14 -15 -13 -14 -14 -13 -12 -12 -12 -12 -12 -12 -12 -12 -12 -12 -11 -11 -11 -10 -10 -10 -11 -11 -11 -11 -11 -10 -9 -9 -9 -9 -8 -7
-14 -14 -14 -14 -13 -14 -14 -15 -15 -16 -12 -13 -13 -12 -12 -12 -12 -12 -11 -12 -12 -11 -11 -11 -11 -10 -10 -10 -10 -10 -11 -10 -10 -10 -10 -10 -9 -9 -9 -8 -8 -8
-13 -13 -13 -13 -14 -15 -15 -16 -15 -14 -13 -12 -11 -11 -12 -12 -11 -11 -12 -11 -11 -11 -11 -11 -10 -10 -10 -10 -10 -10 -10 -10 -9 -8 -8 -8 -8 -8 -7 -7 -8 -7
-13 -13 -13 -14 -14 -14 -14 -15 -14 -13 -13 -12 -11 -12 -12 -12 -11 -10 -9 -10 -10 -10 -10 -10 -10 -10 -10 -10 -10 -10 -10 -9 -8 -8 -9 -8 -8 -8 -8 -8 -8 -8
-13 -13 -14 -15 -15 -15 -14 -14 -13 -12 -12 -12 -11 -11 -11 -11 -10 -10 -9 -9 -10 -9 -9 -9 -9 -9 -10 -10 -10 -10 -9 -9 -9 -9 -9 -9 -9 -9 -8 -8 -8 -8
-14 -15 -15 -14 -14 -13 -13 -12 -12 -12 -11 -11 -10 -12 -11 -10 -9 -9 -9 -9 -9 -9 -9 -8 -9 -9 -9 -9 -8 -9 -9 -9 -9 -9 -9 -9 -9 -8 -8 -8 -7 -7
-15 -14 -14 -13 -12 -13 -13 -12 -12 -12 -11 -11 -11 -9 -9 -8 -8 -8 -9 -9 -9 -8 -8 -8 -9 -9 -9 -9 -10 -9 -9 -9 -9 -9 -8 -8 -8 -7 -7 -7 -7 -7
-14 -13 -12 -12 -12 -12 -12 -12 -12 -11 -10 -11 -11 -10 -9 -8 -8 -8 -8 -8 -9 -9 -9 -9 -10 -10 -8 -2 6 -1 -2 -3 -3 -3 -3 -3 -4 -4 -4 -4 -4 -4
-13 -13 -12 -12 -12 -12 -12 -11 -10 -10 -11 -11 -10 -10 -9 -9 -8 -8 -9 -9 -9 -10 -10 -11 -10 -10 -2 9 4 3 -8 -4 -3 -2 -2 -3 -3 -3 -4 -4 -4 -4
-12 -12 -12 -11 -12 -12 -11 -11 -11 -11 -11 -10 -10 -10 -8 -9 -9 -9 -10 -9 -10 -10 -11 -11 -11 -6 8 6 6 7 0 -7 -3 -3 -4 -4 -3 -3 -3 -4 -4 -4
-12 -12 -12 -11 -11 -10 -11 -9 -10 -10 -11 -11 -11 -10 -11 -10 -9 -8 -9 -10 -10 -10 -11 -11 -11 2 8 5 5 8 6 1 -6 -5 -4 -4 -4 -5 -5 -5 -5 -5
-11 -11 -10 -10 -10 -9 -9 -10 -12 -11 -11 -11 -10 -9 -9 -9 -10 -10 -9 -10 -11 -11 -12 -12 -12 -8 7 8 2 2 1 3 -7 -4 -4 -4 -6 -6 -7 -7 -7 -7
-10 -10 -9 -9 -9 -9 -10 -11 -11 -11 -10 -9 -10 -9 -9 -10 -10 -11 -11 -11 -11 -12 -12 -13 -13 2 8 5 -3 3 5 3 -3 -3 -5 -7 -7 -8 -7 -7 -7 -7
-9 -10 -9 -9 -9 -10 -11 -10 -10 -10 -10 -10 -9 -9 -10 -10 -10 -11 -11 -12 -11 -12 -13 -13 -13 5 7 6 -1 3 4 -2 -5 -7 -7 -7 -7 -7 -7 -7 -7 -7
-9 -9 -9 -9 -10 -10 -10 -10 -9 -10 -10 -10 -11 -9 -9 -10 -11 -11 -11 -12 -12 -13 -13 -13 -13 -3 6 7 2 4 -0 -6 -6 -6 -7 -7 -7 -7 -7 -7 -7 -7
-8 -9 -9 -10 -10 -11 -10 -9 -9 -9 -9 -9 -9 -10 -9 -10 -11 -11 -12 -12 -12 -13 -13 -14 -14 -6 6 7 3 2 -2 -7 -6 -7 -8 -7 -7 -7 -7 -6 -5 -2
-9 -9 -10 -10 -10 -9 -10 -10 -9 -9 -9 -9 -10 -10 -11 -11 -11 -12 -12 -12 -13 -13 -11 -12 -13 -10 3 5 6 -7 -3 -7 -5 -6 -7 -7 -6 -7 -6 -5 -5 -3
-9 -9 -9 -9 -9 -9 -9 -9 -9 -10 -10 -10 -10 -10 -11 -11 -12 -12 -13 -13 -13 -14 -14 -14 -15 -15 -11 4 5 0 3 -6 -6 -6 -7 -7 -6 -6 -6 -5 -5 -5

ECMWFNIL_sfc_dewp_102.txt.gz
Dewpoint
-11 -10 -12 -11 -11 -9 -11 -10 -12 -16 -17 -17 -16 -16 -15 -15 -10 -13 -12 -12 -10 -10 -11 -12 -11 -12 -12 -12 -13 -12 -12 -12 -11 -12 -13 -12 -12 -13 -12 -12 -11 -10
-12 -8 -3 -3 1 -2 -7 -12 -16 -17 -16 -16 -16 -15 -15 -13 -14 -13 -12 -11 -11 -11 -12 -12 -12 -11 -12 -12 -12 -11 -11 -11 -12 -10 -12 -12 -12 -12 -12 -13 -12 -12
-13 -14 -14 -14 -14 -14 -15 -15 -15 -16 -16 -16 -15 -14 -14 -12 -13 -12 -11 -12 -10 -10 -12 -12 -13 -12 -11 -12 -12 -12 -12 -12 -11 -11 -10 -11 -11 -12 -11 -12 -12 -11
-14 -14 -14 -14 -14 -14 -15 -14 -15 -15 -15 -14 -15 -14 -13 -13 -10 -10 -12 -5 -12 -12 -13 -13 -12 -12 -12 -12 -10 -11 -11 -11 -12 -12 -12 -11 -10 -10 -10 -11 -9 -9
-14 -14 -13 -13 -13 -12 -12 -14 -15 -16 -16 -16 -15 -14 -10 -10 -12 -13 -13 -13 -13 -13 -12 -12 -13 -12 -11 -12 -12 -12 -12 -12 -12 -13 -12 -11 -11 -10 -10 -9 -9 -8
-12 -12 -10 -12 -13 -13 -14 -14 -15 -15 -15 -15 -14 -11 -12 -12 -13 -13 -13 -14 -14 -13 -13 -12 -12 -12 -12 -12 -12 -12 -12 -12 -12 -12 -12 -12 -11 -10 -10 -9 -8 -7
-14 -14 -14 -13 -13 -14 -14 -14 -14 -8 -12 -12 -11 -12 -12 -13 -14 -14 -14 -13 -13 -11 -12 -13 -13 -12 -12 -12 -11 -11 -11 -11 -11 -11 -11 -11 -10 -10 -10 -9 -8 -8
-14 -14 -14 -14 -14 -14 -13 -14 -13 -13 -13 -12 -13 -14 -13 -13 -14 -13 -12 -12 -13 -13 -13 -12 -12 -12 -12 -11 -11 -10 -11 -11 -11 -11 -11 -11 -11 -11 -10 -8 -8 -7
-14 -14 -15 -15 -15 -15 -14 -14 -13 -13 -12 -13 -14 -14 -12 -13 -12 -12 -12 -12 -12 -12 -12 -12 -12 -11 -11 -10 -9 -9 -10 -10 -10 -11 -11 -11 -10 -10 -10 -9 -8 -8
-14 -14 -14 -14 -14 -13 -13 -13 -13 -13 -12 -13 -14 -13 -12 -12 -11 -12 -12 -12 -12 -12 -12 -11 -11 -10 -10 -10 -9 -10 -10 -9 -9 -9 -10 -9 -8 -9 -9 -9 -8 -9
-13 -13 -13 -13 -13 -13 -13 -13 -14 -14 -14 -12 -13 -12 -11 -11 -10 -10 -11 -11 -12 -11 -11 -11 -10 -10 -10 -10 -10 -10 -10 -9 -9 -8 -8 -8 -8 -9 -7 -8 -8 -8
-12 -13 -13 -13 -13 -13 -13 -13 -13 -14 -14 -13 -10 -12 -12 -12 -11 -11 -10 -10 -10 -10 -10 -10 -10 -10 -10 -10 -10 -10 -10 -9 -8 -8 -9 -8 -8 -9 -9 -8 -9 -9
-12 -12 -12 -13 -13 -14 -13 -13 -14 -13 -13 -13 -11 -11 -11 -11 -10 -11 -9 -10 -10 -9 -9 -9 -9 -9 -9 -9 -9 -9 -9 -8 -8 -9 -9 -9 -9 -9 -9 -9 -8 -8
-12 -13 -13 -14 -14 -13 -13 -12 -12 -12 -12 -12 -10 -10 -10 -11 -11 -10 -10 -9 -9 -9 -8 -9 -9 -9 -9 -9 -9 -9 -9 -9 -9 -9 -9 -10 -9 -9 -8 -8 -8 -8
-14 -13 -14 -13 -12 -12 -12 -12 -11 -12 -11 -11 -10 -8 -8 -9 -9 -9 -9 -9 -9 -9 -9 -9 -9 -9 -9 -9 -10 -9 -9 -9 -9 -9 -8 -8 -8 -8 -7 -7 -7 -7
-13 -13 -12 -12 -12 -12 -12 -11 -11 -11 -10 -11 -10 -9 -9 -9 -9 -9 -9 -9 -9 -9 -9 -10 -10 -10 -7 -2 5 -1 -2 -2 -2 -2 -2 -2 -3 -3 -4 -4 -4 -5
-13 -13 -13 -13 -12 -12 -11 -11 -11 -10 -10 -10 -9 -10 -10 -10 -9 -8 -10 -9 -10 -10 -10 -10 -10 -10 -3 9 10 7 -3 -2 0 -0 -1 -2 -3 -3 -4 -4 -4 -4
-13 -13 -12 -12 -12 -11 -11 -11 -10 -10 -10 -9 -10 -10 -9 -10 -10 -10 -10 -10 -10 -11 -11 -10 -10 -6 8 10 10 6 8 -0 -1 -1 -2 -2 -3 -4 -5 -5 -5 -6
-12 -12 -12 -12 -11 -10 -10 -9 -10 -9 -10 -10 -10 -10 -12 -12 -9 -8 -9 -10 -10 -10 -11 -10 -11 2 8 10 9 6 7 -0 -3 -2 -2 -3 -4 -5 -6 -7 -7 -7
-12 -12 -11 -11 -10 -10 -10 -10 -10 -10 -10 -10 -11 -10 -10 -10 -10 -10 -9 -10 -11 -11 -11 -11 -11 -7 7 9 11 8 5 -0 -1 -1 -2 -4 -6 -7 -8 -9 -9 -9
-11 -11 -10 -10 -9 -10 -10 -10 -10 -10 -10 -10 -10 -10 -9 -10 -10 -11 -11 -11 -11 -12 -12 -12 -12 2 8 9 10 5 1 4 -2 -2 -4 -7 -8 -9 -9 -9 -9 -9
-10 -10 -9 -9 -9 -10 -10 -10 -10 -11 -11 -10 -10 -10 -10 -10 -10 -11 -11 -11 -11 -12 -12 -12 -12 5 7 9 10 6 8 -2 -2 -4 -6 -8 -8 -9 -9 -8 -8 -8
-9 -9 -9 -9 -9 -10 -10 -11 -10 -11 -11 -12 -12 -10 -9 -10 -10 -10 -10 -10 -11 -12 -12 -12 -12 -2 6 8 9 5 1 -4 -4 -5 -6 -7 -9 -9 -9 -9 -9 -8
-8 -9 -9 -10 -10 -11 -11 -10 -10 -10 -10 -10 -10 -10 -10 -10 -10 -10 -10 -10 -11 -12 -12 -13 -13 -7 5 7 9 3 -1 -5 -5 -6 -7 -7 -8 -9 -8 -8 -8 -4
-9 -9 -10 -10 -11 -10 -11 -11 -10 -10 -9 -11 -11 -12 -11 -10 -10 -11 -11 -11 -12 -12 -10 -11 -12 -10 4 6 7 7 -7 -5 -4 -5 -8 -9 -8 -9 -8 -8 -7 -5
-9 -10 -9 -10 -10 -11 -11 -11 -11 -12 -11 -10 -11 -11 -11 -11 -11 -12 -12 -12 -12 -13 -14 -13 -14 -14 -11 5 6 8 -0 -6 -4 -6 -8 -9 -9 -9 -9 -9 -8 -7

ECMWFNIL_sfc_dewp_108.txt.gz
Dewpoint
-7 -8 -8 -7 -10 -10 -11 -12 -12 -13 -13 -13 -13 -14 -14 -15 -12 -13 -13 -12 -11 -11 -11 -11 -9 -8 -6 -7 -8 -8 -9 -12 -11 -13 -13 -12 -13 -13 -13 -12 -12 -11
-6 -6 -4 -7 -6 -1 -5 -12 -13 -13 -13 -13 -13 -14 -15 -14 -14 -12 -14 -13 -12 -11 -12 -11 -11 -10 -11 -11 -12 -12 -12 -11 -12 -10 -12 -13 -12 -12 -13 -13 -13 -12
-6 -7 -8 -8 -10 -10 -7 -6 -9 -11 -11 -11 -12 -14 -15 -12 -14 -14 -13 -14 -14 -12 -12 -10 -11 -10 -10 -11 -12 -11 -10 -10 -10 -11 -9 -10 -11 -11 -12 -12 -12 -12
-7 -8 -9 -9 -9 -10 -10 -8 -7 -7 -9 -12 -13 -14 -13 -14 -13 -14 -14 -5 -12 -13 -12 -11 -11 -12 -11 -12 -11 -10 -11 -11 -11 -11 -11 -9 -8 -9 -10 -11 -9 -10
-7 -9 -11 -11 -11 -10 -11 -12 -13 -13 -13 -13 -14 -13 -10 -11 -12 -13 -13 -13 -11 -11 -9 -10 -11 -12 -12 -12 -12 -11 -11 -10 -11 -11 -11 -11 -10 -9 -10 -9 -9 -9
-8 -10 -10 -12 -12 -12 -13 -13 -13 -13 -13 -14 -14 -12 -13 -13 -13 -13 -12 -12 -12 -12 -12 -11 -12 -12 -12 -12 -12 -12 -12 -11 -11 -12 -12 -12 -11 -10 -10 -10 -9 -8
-10 -11 -12 -12 -12 -13 -13 -13 -12 -9 -13 -13 -12 -12 -12 -13 -13 -13 -13 -12 -13 -11 -12 -13 -13 -13 -12 -12 -12 -11 -11 -12 -12 -12 -12 -11 -10 -11 -11 -10 -9 -8
-10 -11 -11 -12 -12 -12 -11 -12 -12 -11 -10 -10 -12 -13 -12 -13 -13 -13 -11 -12 -12 -13 -13 -13 -12 -13 -13 -12 -11 -11 -12 -12 -11 -11 -11 -11 -10 -11 -10 -9 -9 -8
-11 -12 -12 -12 -12 -12 -12 -12 -11 -11 -11 -11 -11 -11 -10 -11 -11 -11 -11 -11 -12 -11 -12 -13 -12 -12 -12 -11 -10 -10 -11 -11 -11 -11 -11 -11 -10 -10 -10 -10 -9 -8
-11 -12 -12 -12 -12 -12 -12 -13 -12 -12 -10 -11 -11 -11 -10 -10 -10 -11 -11 -12 -12 -11 -11 -12 -12 -11 -10 -10 -9 -10 -10 -9 -10 -10 -10 -10 -9 -9 -10 -9 -8 -9
-12 -12 -12 -12 -12 -13 -13 -13 -11 -12 -11 -10 -11 -10 -10 -11 -10 -10 -11 -11 -12 -11 -11 -12 -11 -10 -10 -10 -10 -10 -10 -9 -8 -7 -7 -8 -8 -8 -6 -7 -8 -9
-12 -12 -13 -13 -13 -13 -13 -12 -11 -11 -11 -10 -8 -10 -11 -11 -11 -11 -9 -11 -11 -11 -11 -11 -10 -10 -10 -10 -10 -10 -9 -9 -7 -7 -8 -8 -8 -8 -8 -8 -8 -9
-12 -12 -12 -13 -12 -11 -11 -10 -11 -11 -11 -11 -9 -10 -11 -11 -10 -10 -9 -9 -9 -9 -9 -9 -9 -9 -9 -10 -9 -9 -8 -8 -8 -8 -9 -8 -8 -8 -8 -8 -8 -8
-12 -12 -12 -12 -12 -10 -10 -10 -9 -10 -10 -11 -9 -11 -10 -10 -10 -9 -9 -8 -9 -9 -8 -8 -8 -9 -9 -9 -8 -8 -8 -9 -8 -9 -9 -9 -8 -8 -8 -9 -9 -9
-12 -12 -12 -11 -9 -10 -10 -10 -10 -11 -11 -11 -10 -7 -8 -8 -8 -8 -8 -8 -8 -8 -8 -8 -8 -8 -8 -8 -9 -9 -10 -10 -9 -9 -8 -9 -9 -9 -9 -9 -9 -9
-12 -11 -11 -11 -11 -11 -11 -11 -12 -11 -10 -11 -10 -9 -9 -8 -9 -8 -8 -8 -9 -8 -9 -10 -9 -9 -6 -2 2 -4 -7 -8 -8 -7 -7 -7 -7 -8 -8 -9 -9 -9
-12 -12 -11 -11 -11 -12 -12 -12 -10 -11 -11 -10 -10 -10 -10 -10 -9 -8 -9 -9 -10 -10 -10 -10 -10 -9 -3 7 9 11 4 2 0 -0 -1 -1 -2 -4 -5 -5 -6 -7
-12 -12 -12 -12 -12 -12 -12 -11 -11 -11 -11 -10 -11 -10 -9 -10 -11 -10 -10 -10 -10 -11 -11 -10 -10 -5 7 9 11 11 9 2 2 1 1 1 0 -0 -2 -2 -3 -3
-12 -12 -12 -12 -11 -11 -11 -10 -10 -10 -11 -12 -11 -10 -12 -13 -9 -8 -10 -10 -11 -10 -11 -11 -11 2 8 10 11 11 11 6 1 1 1 1 0 -0 -1 -2 -3 -4
-11 -11 -11 -11 -11 -11 -11 -10 -11 -11 -11 -11 -12 -11 -10 -10 -11 -10 -9 -11 -11 -12 -11 -11 -11 -7 7 10 11 11 11 7 1 2 2 1 1 0 -2 -4 -6 -7
-10 -11 -10 -11 -10 -10 -11 -11 -11 -11 -10 -10 -11 -9 -9 -10 -11 -11 -11 -11 -12 -12 -12 -12 -12 3 9 10 11 11 11 8 2 2 1 -0 -1 -3 -4 -6 -7 -8
-10 -11 -10 -10 -9 -10 -11 -10 -10 -11 -11 -10 -11 -10 -11 -12 -11 -12 -12 -12 -11 -12 -13 -12 -12 6 9 11 11 11 11 3 3 2 1 -1 -4 -6 -8 -8 -8 -9
-9 -9 -9 -9 -10 -11 -11 -11 -10 -11 -11 -12 -12 -10 -9 -10 -11 -11 -11 -11 -11 -12 -13 -12 -12 -1 7 9 10 11 8 2 1 -1 -3 -4 -5 -7 -9 -9 -9 -10
-8 -8 -9 -9 -11 -11 -11 -9 -9 -11 -11 -11 -10 -11 -10 -11 -11 -11 -11 -11 -11 -12 -12 -12 -12 -7 5 8 10 11 7 2 2 -0 -1 -2 -4 -7 -9 -9 -9 -5
-7 -8 -9 -9 -10 -9 -11 -10 -10 -10 -10 -13 -11 -13 -11 -12 -12 -12 -12 -11 -11 -12 -9 -10 -11 -9 4 7 9 9 5 1 -0 -2 -4 -5 -6 -7 -9 -9 -9 -6
-8 -8 -9 -9 -9 -11 -11 -11 -11 -14 -13 -12 -12 -13 -12 -12 -13 -13 -13 -12 -12 -12 -13 -12 -13 -13 -10 5 7 9 9 1 0 -2 -3 -4 -5 -7 -10 -11 -11 -10

ECMWFNIL_sfc_dewp_111.txt.gz
Dewpoint
2 -1 -3 -6 -9 -9 -11 -12 -13 -13 -13 -14 -14 -14 -14 -14 -13 -14 -15 -14 -13 -12 -12 -13 -11 -9 -9 -11 -11 -12 -13 -14 -14 -15 -15 -15 -16 -16 -15 -15 -15 -14
1 1 0 -4 -6 -4 -9 -12 -13 -13 -13 -13 -14 -14 -14 -13 -14 -14 -15 -15 -13 -12 -13 -13 -12 -11 -11 -10 -11 -11 -12 -12 -13 -13 -14 -15 -15 -15 -15 -15 -15 -15
1 0 -2 -3 -6 -7 -7 -11 -12 -12 -13 -13 -13 -14 -14 -12 -14 -14 -14 -15 -15 -13 -13 -12 -13 -12 -9 -11 -11 -10 -11 -12 -12 -13 -12 -13 -14 -15 -14 -14 -15 -14
3 -1 -3 -4 -6 -7 -7 -8 -11 -12 -13 -13 -13 -12 -12 -13 -13 -14 -14 -7 -14 -14 -13 -13 -12 -12 -11 -11 -9 -11 -12 -12 -12 -13 -12 -12 -11 -12 -13 -14 -13 -13
3 -0 -2 -4 -6 -7 -8 -8 -8 -9 -11 -12 -12 -12 -10 -12 -13 -14 -15 -13 -12 -13 -12 -13 -13 -13 -12 -12 -12 -11 -11 -12 -13 -13 -13 -12 -11 -10 -11 -11 -11 -10
2 -0 -2 -4 -6 -8 -9 -10 -9 -8 -8 -9 -10 -10 -12 -12 -13 -13 -13 -14 -14 -13 -12 -12 -12 -12 -12 -12 -13 -13 -13 -13 -13 -13 -13 -13 -13 -12 -10 -10 -8 -6
2 -0 -3 -5 -7 -8 -9 -10 -10 -8 -11 -11 -10 -11 -12 -13 -13 -13 -13 -13 -13 -12 -13 -12 -12 -11 -12 -12 -12 -12 -12 -13 -13 -12 -12 -13 -12 -12 -11 -10 -10 -7
3 -0 -3 -6 -8 -10 -9 -11 -10 -9 -11 -12 -12 -13 -12 -13 -13 -13 -12 -13 -13 -13 -13 -13 -12 -12 -13 -12 -12 -12 -13 -12 -12 -12 -13 -13 -12 -12 -11 -8 -7 -7
3 -1 -5 -7 -9 -11 -10 -11 -11 -10 -9 -10 -11 -12 -11 -12 -11 -12 -11 -12 -12 -12 -13 -12 -12 -12 -12 -10 -10 -11 -12 -12 -12 -12 -12 -12 -12 -11 -11 -10 -7 -6
2 -2 -6 -8 -9 -9 -11 -11 -11 -11 -9 -10 -10 -10 -10 -10 -11 -12 -11 -12 -11 -11 -11 -12 -12 -12 -10 -11 -9 -10 -10 -9 -11 -11 -11 -10 -9 -10 -10 -8 -7 -7
-0 -3 -7 -9 -10 -10 -11 -11 -10 -11 -10 -9 -10 -10 -9 -10 -9 -10 -11 -11 -11 -11 -11 -11 -11 -11 -11 -11 -11 -11 -10 -9 -7 -5 -7 -6 -7 -7 -5 -5 -6 -6
-2 -5 -7 -9 -10 -11 -11 -11 -10 -11 -11 -8 -8 -11 -10 -10 -10 -9 -9 -10 -11 -11 -11 -11 -11 -11 -11 -10 -10 -10 -10 -9 -5 -5 -6 -5 -5 -6 -6 -5 -5 -6
-4 -6 -8 -9 -9 -11 -11 -10 -11 -11 -11 -10 -8 -9 -9 -9 -9 -9 -9 -9 -10 -10 -9 -10 -9 -10 -9 -9 -9 -9 -6 -4 -5 -5 -7 -5 -5 -5 -5 -5 -5 -5
-5 -6 -9 -9 -10 -9 -10 -10 -9 -10 -10 -10 -8 -8 -7 -8 -8 -8 -10 -9 -9 -9 -9 -8 -8 -8 -8 -8 -7 -5 -5 -5 -6 -5 -6 -6 -6 -6 -5 -5 -5 -5
-6 -8 -10 -9 -9 -10 -10 -9 -9 -9 -8 -8 -7 -3 -5 -8 -7 -7 -8 -8 -9 -8 -8 -6 -5 -5 -5 -5 -5 -5 -6 -6 -6 -6 -6 -6 -6 -6 -5 -5 -6 -6
-8 -8 -10 -10 -9 -9 -9 -9 -9 -8 -8 -9 -7 -5 -4 -7 -8 -6 -5 -6 -7 -6 -6 -6 -6 -6 -4 -1 2 -3 -6 -6 -6 -6 -6 -6 -6 -6 -6 -6 -6 -6
-9 -9 -9 -9 -8 -9 -9 -8 -8 -8 -8 -5 -7 -5 -5 -5 -5 -5 -6 -6 -7 -7 -7 -7 -7 -7 -2 6 9 10 6 2 -0 -2 -2 -4 -5 -6 -6 -6 -5 -5
-9 -9 -9 -8 -9 -9 -9 -8 -8 -7 -7 -6 -7 -7 -6 -7 -7 -7 -7 -7 -8 -8 -8 -8 -8 -4 6 8 10 11 11 5 5 5 4 2 -1 -2 -2 -2 -2 -4
-9 -9 -8 -9 -8 -7 -9 -6 -6 -6 -6 -6 -8 -7 -8 -8 -6 -7 -8 -8 -9 -8 -9 -9 -9 2 8 10 11 12 12 9 4 5 4 3 3 2 2 1 0 -0
-8 -8 -7 -8 -8 -8 -8 -6 -6 -7 -6 -7 -8 -8 -7 -8 -9 -8 -8 -9 -9 -9 -9 -9 -9 -6 7 9 10 12 13 9 4 5 4 4 3 2 2 0 0 -1
-8 -7 -6 -8 -9 -8 -7 -7 -7 -7 -6 -7 -8 -7 -7 -8 -9 -9 -9 -9 -9 -10 -10 -10 -10 3 8 10 11 12 12 9 4 4 4 4 3 2 2 1 -0 -1
-7 -8 -6 -7 -7 -8 -8 -6 -6 -7 -8 -7 -8 -9 -9 -10 -10 -10 -10 -10 -9 -10 -11 -10 -10 6 9 10 11 12 12 5 4 4 3 2 1 1 0 -1 -1 -2
-6 -7 -7 -7 -7 -8 -8 -7 -6 -8 -8 -9 -10 -8 -8 -9 -9 -10 -9 -9 -10 -11 -11 -10 -10 -1 7 9 11 12 9 3 3 2 -0 0 -1 -2 -3 -3 -3 -3
-5 -5 -6 -7 -7 -7 -7 -6 -7 -7 -8 -8 -8 -9 -9 -9 -9 -9 -10 -10 -10 -10 -10 -11 -10 -6 5 9 10 12 9 3 3 2 1 1 -0 -1 -2 -3 -4 -3
-5 -6 -6 -6 -7 -6 -7 -6 -7 -7 -7 -8 -8 -9 -9 -10 -9 -11 -11 -11 -10 -10 -8 -8 -9 -8 4 8 10 11 6 2 -0 -2 -3 -4 -5 -5 -5 -5 -6 -4
-4 -5 -6 -6 -6 -7 -7 -7 -7 -8 -8 -8 -9 -9 -10 -11 -11 -11 -11 -11 -10 -10 -11 -10 -10 -10 -8 5 8 9 10 3 1 0 -1 -2 -3 -4 -5 -5 -6 -7